Time,TemperatureF,DewpointF,PressureIn,WindDirection,WindDirectionDegrees,WindSpeedMPH,WindSpeedGustMPH,Humidity,HourlyPrecipIn,Conditions,Clouds,dailyrainin,SoftwareType,DateUTC
2013-04-18 00:01:00,31.6,29.3,29.97,West,279,6.0,25.0,91,0.00,,---,0.46,VWS V14.01,2013-04-18 05:01:00,
2013-04-18 00:06:00,31.6,29.3,29.99,SSW,199,7.0,26.0,91,0.00,,---,0.00,VWS V14.01,2013-04-18 05:06:00,
2013-04-18 00:11:00,31.6,29.3,30.02,SW,214,18.0,26.0,91,0.00,,---,0.00,VWS V14.01,2013-04-18 05:11:00,
2013-04-18 00:16:00,31.6,29.3,30.03,SW,235,5.0,26.0,91,0.00,,---,0.00,VWS V14.01,2013-04-18 05:16:00,
2013-04-18 00:21:00,31.4,29.4,30.03,West,263,11.0,32.0,92,0.00,,---,0.00,VWS V14.01,2013-04-18 05:21:00,
2013-04-18 00:26:00,31.1,29.3,30.00,West,259,10.0,32.0,93,0.00,,---,0.00,VWS V14.01,2013-04-18 05:26:00,
2013-04-18 00:31:00,30.8,29.3,30.01,SSE,162,8.0,32.0,94,0.00,,---,0.00,VWS V14.01,2013-04-18 05:31:00,
2013-04-18 00:36:00,30.6,29.3,30.04,SSW,194,11.0,16.0,95,0.00,,---,0.00,VWS V14.01,2013-04-18 05:36:00,
2013-04-18 00:41:00,30.4,29.1,30.05,SW,232,10.0,17.0,95,0.00,,---,0.00,VWS V14.01,2013-04-18 05:41:00,
2013-04-18 00:46:00,30.4,29.1,30.05,SSW,192,7.0,17.0,95,0.00,,---,0.00,VWS V14.01,2013-04-18 05:46:00,
2013-04-18 00:51:00,30.3,29.3,30.02,SSW,196,14.0,17.0,96,0.00,,---,0.00,VWS V14.01,2013-04-18 05:51:00,
2013-04-18 00:56:00,30.1,29.1,30.02,SW,224,16.0,25.0,96,0.00,,---,0.00,VWS V14.01,2013-04-18 05:56:00,
2013-04-18 01:01:00,29.9,28.9,30.03,SSW,192,9.0,25.0,96,0.00,,---,0.00,VWS V14.01,2013-04-18 06:01:00,
2013-04-18 01:06:00,29.9,28.9,30.03,SW,228,9.0,16.0,96,0.00,,---,0.00,VWS V14.01,2013-04-18 06:06:00,
2013-04-18 01:11:00,29.8,29.0,30.02,SW,215,7.0,16.0,97,0.00,,---,0.00,VWS V14.01,2013-04-18 06:11:00,
2013-04-18 01:16:00,29.8,29.0,30.04,SSE,161,8.0,16.0,97,0.00,,---,0.00,VWS V14.01,2013-04-18 06:16:00,
2013-04-18 01:21:00,29.8,29.0,30.05,WSW,237,4.0,16.0,97,0.00,,---,0.00,VWS V14.01,2013-04-18 06:21:00,
2013-04-18 01:26:00,29.8,29.0,30.07,SW,227,8.0,16.0,97,0.00,,---,0.00,VWS V14.01,2013-04-18 06:26:00,
2013-04-18 01:31:00,29.8,29.0,30.07,SSW,207,3.0,16.0,97,0.00,,---,0.00,VWS V14.01,2013-04-18 06:31:00,
2013-04-18 01:36:00,29.7,29.0,30.06,SSW,213,9.0,11.0,97,0.00,,---,0.00,VWS V14.01,2013-04-18 06:36:00,
2013-04-18 01:41:00,29.6,28.9,30.06,West,265,5.0,11.0,97,0.00,,---,0.00,VWS V14.01,2013-04-18 06:41:00,
2013-04-18 01:46:00,29.6,28.9,30.06,South,184,4.0,11.0,97,0.00,,---,0.00,VWS V14.01,2013-04-18 06:46:00,
2013-04-18 01:51:00,29.5,28.8,30.06,South,185,2.0,11.0,97,0.00,,---,0.00,VWS V14.01,2013-04-18 06:51:00,
2013-04-18 01:57:00,29.4,28.7,30.04,SW,221,6.0,13.0,97,0.00,,---,0.00,VWS V14.01,2013-04-18 06:57:00,
2013-04-18 02:02:00,29.2,28.5,30.02,South,183,5.0,13.0,97,0.00,,---,0.00,VWS V14.01,2013-04-18 07:02:00,
2013-04-18 02:07:00,29.2,28.5,30.02,SW,224,7.0,16.0,97,0.00,,---,0.00,VWS V14.01,2013-04-18 07:07:00,
2013-04-18 02:12:00,29.1,28.4,30.01,SW,235,6.0,16.0,97,0.00,,---,0.00,VWS V14.01,2013-04-18 07:12:00,
2013-04-18 02:17:00,29.1,28.4,30.05,SSW,194,6.0,16.0,97,0.00,,---,0.00,VWS V14.01,2013-04-18 07:17:00,
2013-04-18 02:21:00,29.1,28.4,30.04,South,185,11.0,16.0,97,0.00,,---,0.00,VWS V14.01,2013-04-18 07:21:00,
2013-04-18 02:26:00,29.0,28.3,30.00,South,179,8.0,17.0,97,0.00,,---,0.00,VWS V14.01,2013-04-18 07:26:00,
2013-04-18 02:31:00,28.9,28.2,30.00,South,191,6.0,17.0,97,0.00,,---,0.00,VWS V14.01,2013-04-18 07:31:00,
2013-04-18 02:36:00,28.8,28.1,30.00,SSW,203,5.0,13.0,97,0.00,,---,0.00,VWS V14.01,2013-04-18 07:36:00,
2013-04-18 02:41:00,28.7,28.0,30.01,South,190,5.0,13.0,97,0.00,,---,0.00,VWS V14.01,2013-04-18 07:41:00,
2013-04-18 02:46:00,28.6,27.9,30.00,South,175,6.0,17.0,97,0.00,,---,0.00,VWS V14.01,2013-04-18 07:46:00,
2013-04-18 02:51:00,28.5,27.8,30.00,South,173,16.0,17.0,97,0.00,,---,0.00,VWS V14.01,2013-04-18 07:51:00,
2013-04-18 02:57:00,28.5,27.8,29.99,South,186,8.0,17.0,97,0.00,,---,0.00,VWS V14.01,2013-04-18 07:57:00,
2013-04-18 03:02:00,28.5,27.8,29.99,SSE,162,9.0,17.0,97,0.00,,---,0.00,VWS V14.01,2013-04-18 08:02:00,
2013-04-18 03:07:00,28.6,27.9,30.00,SSW,199,7.0,14.0,97,0.00,,---,0.00,VWS V14.01,2013-04-18 08:07:00,
2013-04-18 03:11:00,28.6,27.9,30.01,SSW,192,5.0,15.0,97,0.00,,---,0.00,VWS V14.01,2013-04-18 08:11:00,
2013-04-18 03:16:00,28.6,27.9,30.01,SSW,207,6.0,15.0,97,0.00,,---,0.00,VWS V14.01,2013-04-18 08:16:00,
2013-04-18 03:21:00,28.6,27.9,29.99,South,177,10.0,15.0,97,0.00,,---,0.00,VWS V14.01,2013-04-18 08:21:00,
2013-04-18 03:26:00,28.6,27.9,29.99,South,183,3.0,18.0,97,0.00,,---,0.00,VWS V14.01,2013-04-18 08:26:00,
2013-04-18 03:32:00,28.5,27.8,30.00,SSE,148,10.0,18.0,97,0.00,,---,0.00,VWS V14.01,2013-04-18 08:32:00,
2013-04-18 03:37:00,28.5,27.8,29.99,South,169,4.0,16.0,97,0.00,,---,0.00,VWS V14.01,2013-04-18 08:37:00,
2013-04-18 03:42:00,28.4,27.4,30.00,South,184,10.0,20.0,96,0.00,,---,0.00,VWS V14.01,2013-04-18 08:42:00,
2013-04-18 03:47:00,28.4,27.4,30.01,South,189,4.0,20.0,96,0.00,,---,0.00,VWS V14.01,2013-04-18 08:47:00,
2013-04-18 03:52:00,28.3,27.3,30.01,SSE,159,6.0,20.0,96,0.00,,---,0.00,VWS V14.01,2013-04-18 08:52:00,
2013-04-18 03:57:00,28.2,27.2,30.01,SSW,204,6.0,20.0,96,0.00,,---,0.00,VWS V14.01,2013-04-18 08:57:00,
2013-04-18 04:02:00,28.1,27.1,30.02,SSW,213,17.0,20.0,96,0.00,,---,0.00,VWS V14.01,2013-04-18 09:02:00,
2013-04-18 04:07:00,28.0,27.0,30.01,SW,224,7.0,21.0,96,0.00,,---,0.00,VWS V14.01,2013-04-18 09:07:00,
2013-04-18 04:12:00,27.9,26.9,30.00,South,172,13.0,21.0,96,0.00,,---,0.00,VWS V14.01,2013-04-18 09:12:00,
2013-04-18 04:17:00,27.9,26.7,30.00,South,173,11.0,25.0,95,0.00,,---,0.00,VWS V14.01,2013-04-18 09:17:00,
2013-04-18 04:22:00,27.9,26.7,30.02,SSW,199,10.0,25.0,95,0.00,,---,0.00,VWS V14.01,2013-04-18 09:22:00,
2013-04-18 04:27:00,27.9,26.7,30.01,SSW,207,14.0,25.0,95,0.00,,---,0.00,VWS V14.01,2013-04-18 09:27:00,
2013-04-18 04:32:00,27.9,26.4,30.01,SW,225,7.0,25.0,94,0.00,,---,0.00,VWS V14.01,2013-04-18 09:32:00,
2013-04-18 04:37:00,28.0,26.5,30.01,SW,214,11.0,15.0,94,0.00,,---,0.00,VWS V14.01,2013-04-18 09:37:00,
2013-04-18 04:42:00,27.9,26.4,30.02,South,173,7.0,18.0,94,0.00,,---,0.00,VWS V14.01,2013-04-18 09:42:00,
2013-04-18 04:47:00,28.0,26.5,30.01,SSW,197,19.0,19.0,94,0.00,,---,0.00,VWS V14.01,2013-04-18 09:47:00,
2013-04-18 04:52:00,28.0,26.5,30.01,South,175,11.0,19.0,94,0.00,,---,0.00,VWS V14.01,2013-04-18 09:52:00,
2013-04-18 04:57:00,27.9,26.4,30.02,South,180,6.0,19.0,94,0.00,,---,0.00,VWS V14.01,2013-04-18 09:57:00,
2013-04-18 05:02:00,27.9,26.4,30.00,SSW,213,16.0,20.0,94,0.00,,---,0.00,VWS V14.01,2013-04-18 10:02:00,
2013-04-18 05:07:00,27.8,26.3,30.01,SW,218,7.0,18.0,94,0.00,,---,0.00,VWS V14.01,2013-04-18 10:07:00,
2013-04-18 05:12:00,27.8,26.3,30.00,SW,214,12.0,18.0,94,0.00,,---,0.00,VWS V14.01,2013-04-18 10:12:00,
2013-04-18 05:17:00,27.8,26.3,30.00,WSW,239,6.0,21.0,94,0.00,,---,0.00,VWS V14.01,2013-04-18 10:17:00,
2013-04-18 05:22:00,27.8,26.3,30.00,SSE,168,4.0,21.0,94,0.00,,---,0.00,VWS V14.01,2013-04-18 10:22:00,
2013-04-18 05:27:00,27.8,26.3,29.99,South,189,12.0,23.0,94,0.00,,---,0.00,VWS V14.01,2013-04-18 10:27:00,
2013-04-18 05:32:00,27.7,26.2,29.99,SE,146,15.0,23.0,94,0.00,,---,0.00,VWS V14.01,2013-04-18 10:32:00,
2013-04-18 05:37:00,27.7,26.2,29.99,South,172,13.0,20.0,94,0.00,,---,0.00,VWS V14.01,2013-04-18 10:37:00,
2013-04-18 05:42:00,27.5,25.8,29.99,SSE,162,7.0,21.0,93,0.00,,---,0.00,VWS V14.01,2013-04-18 10:42:00,
2013-04-18 05:47:00,27.4,25.6,30.00,SSE,168,13.0,21.0,93,0.00,,---,0.00,VWS V14.01,2013-04-18 10:47:00,
2013-04-18 05:52:00,27.4,25.6,30.01,SSW,194,22.0,23.0,93,0.00,,---,0.00,VWS V14.01,2013-04-18 10:52:00,
2013-04-18 05:57:00,27.3,25.5,30.01,South,172,9.0,27.0,93,0.00,,---,0.00,VWS V14.01,2013-04-18 10:57:00,
2013-04-18 06:02:00,27.3,25.5,30.01,SSW,198,11.0,27.0,93,0.00,,---,0.00,VWS V14.01,2013-04-18 11:02:00,
2013-04-18 06:07:00,27.3,25.5,30.01,SSW,202,11.0,21.0,93,0.00,,---,0.00,VWS V14.01,2013-04-18 11:07:00,
2013-04-18 06:12:00,27.3,25.5,30.01,SE,137,13.0,26.0,93,0.00,,---,0.00,VWS V14.01,2013-04-18 11:12:00,
2013-04-18 06:17:00,27.2,25.7,30.01,South,191,8.0,26.0,94,0.00,,---,0.00,VWS V14.01,2013-04-18 11:17:00,
2013-04-18 06:22:00,27.2,25.7,30.00,SSE,168,10.0,26.0,94,0.00,,---,0.00,VWS V14.01,2013-04-18 11:22:00,
2013-04-18 06:27:00,27.1,25.6,30.01,SSW,192,11.0,26.0,94,0.00,,---,0.00,VWS V14.01,2013-04-18 11:27:00,
2013-04-18 06:32:00,27.1,25.6,30.01,South,185,14.0,26.0,94,0.00,,---,0.00,VWS V14.01,2013-04-18 11:32:00,
2013-04-18 06:37:00,27.1,25.6,30.01,South,180,7.0,20.0,94,0.00,,---,0.00,VWS V14.01,2013-04-18 11:37:00,
2013-04-18 06:42:00,27.1,25.6,30.01,South,179,10.0,21.0,94,0.00,,---,0.00,VWS V14.01,2013-04-18 11:42:00,
2013-04-18 06:47:00,27.1,25.6,30.01,South,186,9.0,21.0,94,0.00,,---,0.00,VWS V14.01,2013-04-18 11:47:00,
2013-04-18 06:52:00,27.1,25.4,30.02,SSW,204,12.0,23.0,93,0.00,,---,0.00,VWS V14.01,2013-04-18 11:52:00,
2013-04-18 06:57:00,27.2,25.5,30.03,SSW,213,8.0,23.0,93,0.00,,---,0.00,VWS V14.01,2013-04-18 11:57:00,
2013-04-18 07:02:00,27.3,25.5,30.02,SSW,207,6.0,23.0,93,0.00,,---,0.00,VWS V14.01,2013-04-18 12:02:00,
2013-04-18 07:07:00,27.3,25.5,30.02,SSW,196,3.0,18.0,93,0.00,,---,0.00,VWS V14.01,2013-04-18 12:07:00,
2013-04-18 07:12:00,27.3,25.5,30.02,SSW,208,9.0,21.0,93,0.00,,---,0.00,VWS V14.01,2013-04-18 12:12:00,
2013-04-18 07:17:00,27.2,25.5,30.02,South,184,14.0,24.0,93,0.00,,---,0.00,VWS V14.01,2013-04-18 12:17:00,
2013-04-18 07:22:00,27.1,25.4,30.02,South,172,11.0,24.0,93,0.00,,---,0.00,VWS V14.01,2013-04-18 12:22:00,
2013-04-18 07:27:00,27.0,25.2,30.03,South,182,15.0,24.0,93,0.00,,---,0.00,VWS V14.01,2013-04-18 12:27:00,
2013-04-18 07:32:00,27.0,25.2,30.03,SSE,166,11.0,24.0,93,0.00,,---,0.00,VWS V14.01,2013-04-18 12:32:00,
2013-04-18 07:37:00,26.9,25.1,30.03,South,184,9.0,23.0,93,0.00,,---,0.00,VWS V14.01,2013-04-18 12:37:00,
2013-04-18 07:42:00,26.9,25.1,30.03,SSW,205,9.0,23.0,93,0.00,,---,0.00,VWS V14.01,2013-04-18 12:42:00,
2013-04-18 07:47:00,27.0,25.2,30.03,South,180,7.0,23.0,93,0.00,,---,0.00,VWS V14.01,2013-04-18 12:47:00,
2013-04-18 07:52:00,26.9,25.4,30.03,South,173,10.0,23.0,94,0.00,,---,0.00,VWS V14.01,2013-04-18 12:52:00,
2013-04-18 07:57:00,26.9,25.1,30.03,SE,146,13.0,23.0,93,0.00,,---,0.00,VWS V14.01,2013-04-18 12:57:00,
2013-04-18 08:02:00,26.8,25.3,30.04,SSE,164,8.0,23.0,94,0.00,,---,0.00,VWS V14.01,2013-04-18 13:02:00,
2013-04-18 08:07:00,26.8,25.3,30.04,SSW,207,9.0,19.0,94,0.00,,---,0.00,VWS V14.01,2013-04-18 13:07:00,
2013-04-18 08:12:00,26.8,25.3,30.04,WSW,253,11.0,19.0,94,0.00,,---,0.00,VWS V14.01,2013-04-18 13:12:00,
2013-04-18 08:17:00,26.8,25.3,30.04,South,172,5.0,24.0,94,0.00,,---,0.00,VWS V14.01,2013-04-18 13:17:00,
2013-04-18 08:22:00,26.8,25.3,30.04,South,186,6.0,24.0,94,0.00,,---,0.00,VWS V14.01,2013-04-18 13:22:00,
2013-04-18 08:27:00,26.7,25.5,30.04,SW,217,7.0,26.0,95,0.00,,---,0.00,VWS V14.01,2013-04-18 13:27:00,
2013-04-18 08:32:00,26.7,25.5,30.04,South,186,20.0,26.0,95,0.00,,---,0.00,VWS V14.01,2013-04-18 13:32:00,
2013-04-18 08:37:00,26.7,25.5,30.04,SSW,199,13.0,19.0,95,0.00,,---,0.00,VWS V14.01,2013-04-18 13:37:00,
2013-04-18 08:42:00,26.8,25.6,30.04,SSE,159,8.0,22.0,95,0.00,,---,0.00,VWS V14.01,2013-04-18 13:42:00,
2013-04-18 08:47:00,26.8,25.6,30.04,SSW,204,12.0,24.0,95,0.00,,---,0.00,VWS V14.01,2013-04-18 13:47:00,
2013-04-18 08:52:00,26.8,25.6,30.04,South,187,15.0,24.0,95,0.00,,---,0.00,VWS V14.01,2013-04-18 13:52:00,
2013-04-18 08:57:00,26.8,25.6,30.05,South,179,16.0,24.0,95,0.00,,---,0.00,VWS V14.01,2013-04-18 13:57:00,
2013-04-18 09:02:00,26.7,25.5,30.05,South,176,9.0,24.0,95,0.00,,---,0.00,VWS V14.01,2013-04-18 14:02:00,
2013-04-18 09:07:00,26.7,25.5,30.05,SSW,213,16.0,27.0,95,0.00,,---,0.00,VWS V14.01,2013-04-18 14:07:00,
2013-04-18 09:12:00,26.7,25.5,30.05,South,179,7.0,27.0,95,0.00,,---,0.00,VWS V14.01,2013-04-18 14:12:00,
2013-04-18 09:17:00,26.9,25.7,30.05,South,172,24.0,27.0,95,0.00,,---,0.00,VWS V14.01,2013-04-18 14:17:00,
2013-04-18 09:22:00,27.0,25.8,30.05,South,190,8.0,27.0,95,0.00,,---,0.00,VWS V14.01,2013-04-18 14:22:00,
2013-04-18 09:27:00,27.1,25.9,30.05,SSE,155,8.0,27.0,95,0.00,,---,0.00,VWS V14.01,2013-04-18 14:27:00,
2013-04-18 09:32:00,27.2,25.7,30.05,SSW,193,19.0,27.0,94,0.00,,---,0.00,VWS V14.01,2013-04-18 14:32:00,
2013-04-18 09:37:00,27.3,25.8,30.05,South,182,11.0,18.0,94,0.00,,---,0.00,VWS V14.01,2013-04-18 14:37:00,
2013-04-18 09:42:00,27.2,25.7,30.05,South,187,8.0,23.0,94,0.00,,---,0.00,VWS V14.01,2013-04-18 14:42:00,
2013-04-18 09:47:00,27.2,25.7,30.06,SSE,157,8.0,23.0,94,0.00,,---,0.00,VWS V14.01,2013-04-18 14:47:00,
2013-04-18 09:52:00,27.2,25.7,30.06,South,175,8.0,23.0,94,0.00,,---,0.00,VWS V14.01,2013-04-18 14:52:00,
2013-04-18 09:57:00,27.2,25.7,30.06,SSE,151,11.0,23.0,94,0.00,,---,0.00,VWS V14.01,2013-04-18 14:57:00,
2013-04-18 10:02:00,27.3,25.8,30.06,South,191,12.0,23.0,94,0.00,,---,0.00,VWS V14.01,2013-04-18 15:02:00,
2013-04-18 10:07:00,27.4,25.9,30.07,SW,231,9.0,15.0,94,0.00,,---,0.00,VWS V14.01,2013-04-18 15:07:00,
2013-04-18 10:12:00,27.4,25.6,30.07,SSW,199,10.0,18.0,93,0.00,,---,0.00,VWS V14.01,2013-04-18 15:12:00,
2013-04-18 10:17:00,27.4,25.6,30.06,South,175,13.0,20.0,93,0.00,,---,0.00,VWS V14.01,2013-04-18 15:17:00,
2013-04-18 10:22:00,27.6,26.1,30.07,SSW,200,6.0,20.0,94,0.00,,---,0.00,VWS V14.01,2013-04-18 15:22:00,
2013-04-18 10:27:00,27.9,26.1,30.07,South,176,5.0,20.0,93,0.00,,---,0.00,VWS V14.01,2013-04-18 15:27:00,
2013-04-18 10:32:00,28.0,26.2,30.07,SSW,200,12.0,20.0,93,0.00,,---,0.00,VWS V14.01,2013-04-18 15:32:00,
2013-04-18 10:37:00,28.2,26.2,30.07,SW,214,6.0,16.0,92,0.00,,---,0.00,VWS V14.01,2013-04-18 15:37:00,
2013-04-18 10:42:00,28.3,26.3,30.07,SSE,160,6.0,16.0,92,0.00,,---,0.00,VWS V14.01,2013-04-18 15:42:00,
2013-04-18 10:47:00,28.5,26.5,30.07,SSE,162,12.0,18.0,92,0.00,,---,0.00,VWS V14.01,2013-04-18 15:47:00,
2013-04-18 10:52:00,28.5,26.2,30.07,ESE,115,11.0,18.0,91,0.00,,---,0.00,VWS V14.01,2013-04-18 15:52:00,
2013-04-18 10:57:00,28.6,26.3,30.07,South,177,10.0,20.0,91,0.00,,---,0.00,VWS V14.01,2013-04-18 15:57:00,
2013-04-18 11:02:00,28.6,26.3,30.07,SW,227,5.0,20.0,91,0.00,,---,0.00,VWS V14.01,2013-04-18 16:02:00,
2013-04-18 11:07:00,28.8,26.5,30.07,South,172,8.0,14.0,91,0.00,,---,0.00,VWS V14.01,2013-04-18 16:07:00,
2013-04-18 11:12:00,28.9,26.3,30.07,ESE,121,13.0,16.0,90,0.00,,---,0.00,VWS V14.01,2013-04-18 16:12:00,
2013-04-18 11:17:00,28.8,26.2,30.07,South,184,12.0,22.0,90,0.00,,---,0.00,VWS V14.01,2013-04-18 16:17:00,
2013-04-18 11:22:00,28.7,25.9,30.07,ESE,123,5.0,22.0,89,0.00,,---,0.00,VWS V14.01,2013-04-18 16:22:00,
2013-04-18 11:27:00,28.9,26.3,30.07,SSE,158,7.0,22.0,90,0.00,,---,0.00,VWS V14.01,2013-04-18 16:27:00,
2013-04-18 11:32:00,28.9,25.8,30.07,South,173,12.0,23.0,88,0.00,,---,0.00,VWS V14.01,2013-04-18 16:32:00,
2013-04-18 11:37:00,29.0,25.9,30.07,South,184,16.0,22.0,88,0.00,,---,0.00,VWS V14.01,2013-04-18 16:37:00,
2013-04-18 11:42:00,29.3,26.2,30.07,South,173,11.0,22.0,88,0.00,,---,0.00,VWS V14.01,2013-04-18 16:42:00,
2013-04-18 11:47:00,29.5,26.1,30.07,South,180,10.0,22.0,87,0.00,,---,0.00,VWS V14.01,2013-04-18 16:47:00,
2013-04-18 11:52:00,29.5,26.4,30.07,South,186,4.0,22.0,88,0.00,,---,0.00,VWS V14.01,2013-04-18 16:52:00,
2013-04-18 11:57:00,29.6,26.5,30.08,SSW,196,7.0,22.0,88,0.00,,---,0.00,VWS V14.01,2013-04-18 16:57:00,
2013-04-18 12:02:00,29.8,26.7,30.08,South,184,10.0,22.0,88,0.00,,---,0.00,VWS V14.01,2013-04-18 17:02:00,
2013-04-18 12:07:00,29.9,26.5,30.08,South,187,10.0,23.0,87,0.00,,---,0.00,VWS V14.01,2013-04-18 17:07:00,
2013-04-18 12:12:00,30.1,26.4,30.08,South,170,14.0,23.0,86,0.00,,---,0.00,VWS V14.01,2013-04-18 17:12:00,
2013-04-18 12:17:00,30.4,26.4,30.07,SSW,199,9.0,23.0,85,0.00,,---,0.00,VWS V14.01,2013-04-18 17:17:00,
2013-04-18 12:22:00,30.7,26.2,30.07,South,173,12.0,23.0,83,0.00,,---,0.00,VWS V14.01,2013-04-18 17:22:00,
2013-04-18 12:27:00,30.7,25.6,30.07,SSE,157,12.0,24.0,81,0.00,,---,0.00,VWS V14.01,2013-04-18 17:27:00,
2013-04-18 12:32:00,30.9,26.4,30.08,SSE,148,8.0,24.0,83,0.00,,---,0.00,VWS V14.01,2013-04-18 17:32:00,
2013-04-18 12:37:00,31.3,26.5,30.08,SSW,207,6.0,19.0,82,0.00,,---,0.00,VWS V14.01,2013-04-18 17:37:00,
2013-04-18 12:42:00,31.4,26.0,30.07,South,175,13.0,19.0,80,0.00,,---,0.00,VWS V14.01,2013-04-18 17:42:00,
2013-04-18 12:47:00,31.0,25.9,30.07,SE,144,12.0,24.0,81,0.00,,---,0.00,VWS V14.01,2013-04-18 17:47:00,
2013-04-18 12:52:00,30.6,25.2,30.07,SSE,160,17.0,30.0,80,0.00,,---,0.00,VWS V14.01,2013-04-18 17:52:00,
2013-04-18 12:57:00,30.3,25.8,30.08,South,189,10.0,30.0,83,0.00,,---,0.00,VWS V14.01,2013-04-18 17:57:00,
2013-04-18 13:02:00,30.2,26.0,30.07,SW,232,9.0,30.0,84,0.00,,---,0.00,VWS V14.01,2013-04-18 18:02:00,
2013-04-18 13:07:00,30.2,25.7,30.07,SSW,200,14.0,23.0,83,0.00,,---,0.00,VWS V14.01,2013-04-18 18:07:00,
2013-04-18 13:12:00,30.4,25.6,30.07,South,177,12.0,23.0,82,0.00,,---,0.00,VWS V14.01,2013-04-18 18:12:00,
2013-04-18 13:17:00,30.5,25.7,30.08,South,178,7.0,23.0,82,0.00,,---,0.00,VWS V14.01,2013-04-18 18:17:00,
2013-04-18 13:22:00,30.7,25.9,30.08,SSE,155,11.0,23.0,82,0.00,,---,0.00,VWS V14.01,2013-04-18 18:22:00,
2013-04-18 13:27:00,30.9,25.5,30.08,South,187,16.0,23.0,80,0.00,,---,0.00,VWS V14.01,2013-04-18 18:27:00,
2013-04-18 13:32:00,31.0,25.3,30.08,SSW,193,7.0,23.0,79,0.00,,---,0.00,VWS V14.01,2013-04-18 18:32:00,
2013-04-18 13:37:00,30.9,26.1,30.08,South,173,14.0,23.0,82,0.00,,---,0.00,VWS V14.01,2013-04-18 18:37:00,
2013-04-18 13:42:00,30.8,26.5,30.08,South,175,5.0,23.0,84,0.00,,---,0.00,VWS V14.01,2013-04-18 18:42:00,
2013-04-18 13:47:00,31.2,26.9,30.08,SSE,165,5.0,23.0,84,0.00,,---,0.00,VWS V14.01,2013-04-18 18:47:00,
2013-04-18 13:52:00,31.4,25.6,30.08,South,172,10.0,23.0,79,0.00,,---,0.00,VWS V14.01,2013-04-18 18:52:00,
2013-04-18 13:57:00,31.7,25.0,30.08,South,182,8.0,29.0,76,0.00,,---,0.00,VWS V14.01,2013-04-18 18:57:00,
2013-04-18 14:02:00,31.8,25.4,30.08,South,182,10.0,30.0,77,0.00,,---,0.00,VWS V14.01,2013-04-18 19:02:00,
2013-04-18 14:07:00,32.2,25.2,30.08,SSW,201,19.0,19.0,75,0.00,,---,0.00,VWS V14.01,2013-04-18 19:07:00,
2013-04-18 14:12:00,32.3,25.0,30.08,South,190,16.0,25.0,74,0.00,,---,0.00,VWS V14.01,2013-04-18 19:12:00,
2013-04-18 14:17:00,32.3,25.0,30.08,SSE,152,10.0,29.0,74,0.00,,---,0.00,VWS V14.01,2013-04-18 19:17:00,
2013-04-18 14:22:00,32.4,25.4,30.08,SSW,196,23.0,29.0,75,0.00,,---,0.00,VWS V14.01,2013-04-18 19:22:00,
2013-04-18 14:27:00,32.7,24.4,30.08,SSW,199,7.0,31.0,71,0.00,,---,0.00,VWS V14.01,2013-04-18 19:27:00,
2013-04-18 14:32:00,32.7,25.3,30.08,South,187,10.0,31.0,74,0.00,,---,0.00,VWS V14.01,2013-04-18 19:32:00,
2013-04-18 14:37:00,32.5,25.8,30.09,SE,127,14.0,21.0,76,0.00,,---,0.00,VWS V14.01,2013-04-18 19:37:00,
2013-04-18 14:42:00,32.5,25.8,30.08,South,182,15.0,28.0,76,0.00,,---,0.00,VWS V14.01,2013-04-18 19:42:00,
2013-04-18 14:47:00,32.5,25.8,30.08,SW,214,9.0,28.0,76,0.00,,---,0.00,VWS V14.01,2013-04-18 19:47:00,
2013-04-18 14:52:00,32.6,26.2,30.08,SSE,161,12.0,28.0,77,0.00,,---,0.00,VWS V14.01,2013-04-18 19:52:00,
2013-04-18 14:57:00,32.6,25.9,30.08,South,187,11.0,28.0,76,0.00,,---,0.00,VWS V14.01,2013-04-18 19:57:00,
2013-04-18 15:02:00,32.9,26.2,30.08,South,170,9.0,28.0,76,0.00,,---,0.00,VWS V14.01,2013-04-18 20:02:00,
2013-04-18 15:07:00,33.3,26.2,30.09,SSE,157,4.0,22.0,75,0.00,,---,0.00,VWS V14.01,2013-04-18 20:07:00,
2013-04-18 15:12:00,33.4,25.7,30.08,South,189,7.0,22.0,73,0.00,,---,0.00,VWS V14.01,2013-04-18 20:12:00,
2013-04-18 15:17:00,33.4,26.0,30.08,South,189,14.0,27.0,74,0.00,,---,0.00,VWS V14.01,2013-04-18 20:17:00,
2013-04-18 15:22:00,33.5,26.1,30.08,SSW,196,11.0,27.0,74,0.00,,---,0.00,VWS V14.01,2013-04-18 20:22:00,
2013-04-18 15:27:00,33.6,25.5,30.08,South,185,14.0,27.0,72,0.00,,---,0.00,VWS V14.01,2013-04-18 20:27:00,
2013-04-18 15:32:00,33.7,26.0,30.09,SSE,159,16.0,27.0,73,0.00,,---,0.00,VWS V14.01,2013-04-18 20:32:00,
2013-04-18 15:37:00,33.6,25.9,30.08,SSW,192,11.0,26.0,73,0.00,,---,0.00,VWS V14.01,2013-04-18 20:37:00,
2013-04-18 15:42:00,34.1,26.0,30.08,SSW,199,14.0,26.0,72,0.00,,---,0.00,VWS V14.01,2013-04-18 20:42:00,
2013-04-18 15:47:00,34.3,25.9,30.09,South,189,5.0,26.0,71,0.00,,---,0.00,VWS V14.01,2013-04-18 20:47:00,
2013-04-18 15:52:00,34.6,26.5,30.09,SE,132,9.0,26.0,72,0.00,,---,0.00,VWS V14.01,2013-04-18 20:52:00,
2013-04-18 15:57:00,34.3,25.9,30.09,South,178,13.0,26.0,71,0.00,,---,0.00,VWS V14.01,2013-04-18 20:57:00,
2013-04-18 16:02:00,34.2,25.1,30.09,SE,127,9.0,26.0,69,0.00,,---,0.00,VWS V14.01,2013-04-18 21:02:00,
2013-04-18 16:07:00,34.3,25.5,30.09,South,172,10.0,20.0,70,0.00,,---,0.00,VWS V14.01,2013-04-18 21:07:00,
2013-04-18 16:12:00,34.2,25.1,30.09,SSE,168,9.0,25.0,69,0.00,,---,0.00,VWS V14.01,2013-04-18 21:12:00,
2013-04-18 16:17:00,34.1,25.0,30.09,SSW,201,11.0,25.0,69,0.00,,---,0.00,VWS V14.01,2013-04-18 21:17:00,
2013-04-18 16:22:00,34.2,25.5,30.09,SW,232,5.0,25.0,70,0.00,,---,0.00,VWS V14.01,2013-04-18 21:22:00,
2013-04-18 16:27:00,34.5,25.7,30.09,South,172,3.0,25.0,70,0.00,,---,0.00,VWS V14.01,2013-04-18 21:27:00,
2013-04-18 16:32:00,34.2,25.8,30.09,South,191,7.0,25.0,71,0.00,,---,0.00,VWS V14.01,2013-04-18 21:32:00,
2013-04-18 16:37:00,34.1,25.7,30.09,SSW,192,7.0,24.0,71,0.00,,---,0.00,VWS V14.01,2013-04-18 21:37:00,
2013-04-18 16:42:00,34.1,25.0,30.09,SSW,206,16.0,24.0,69,0.00,,---,0.00,VWS V14.01,2013-04-18 21:42:00,
2013-04-18 16:47:00,33.9,25.2,30.09,South,172,8.0,24.0,70,0.00,,---,0.00,VWS V14.01,2013-04-18 21:47:00,
2013-04-18 16:52:00,33.9,25.2,30.10,SSE,165,11.0,24.0,70,0.00,,---,0.00,VWS V14.01,2013-04-18 21:52:00,
2013-04-18 16:57:00,33.7,25.0,30.10,SSE,165,5.0,24.0,70,0.00,,---,0.00,VWS V14.01,2013-04-18 21:57:00,
2013-04-18 17:02:00,33.6,25.2,30.10,SSW,204,10.0,24.0,71,0.00,,---,0.00,VWS V14.01,2013-04-18 22:02:00,
2013-04-18 17:07:00,33.5,25.1,30.10,SSW,194,11.0,18.0,71,0.00,,---,0.00,VWS V14.01,2013-04-18 22:07:00,
2013-04-18 17:12:00,33.6,25.2,30.10,South,185,10.0,19.0,71,0.00,,---,0.00,VWS V14.01,2013-04-18 22:12:00,
2013-04-18 17:17:00,33.6,25.2,30.10,South,180,12.0,19.0,71,0.00,,---,0.00,VWS V14.01,2013-04-18 22:17:00,
2013-04-18 17:22:00,33.6,24.9,30.10,SSE,165,14.0,19.0,70,0.00,,---,0.00,VWS V14.01,2013-04-18 22:22:00,
2013-04-18 17:27:00,33.7,24.6,30.10,South,186,9.0,19.0,69,0.00,,---,0.00,VWS V14.01,2013-04-18 22:27:00,
2013-04-18 17:32:00,33.7,24.3,30.11,SSW,206,23.0,23.0,68,0.00,,---,0.00,VWS V14.01,2013-04-18 22:32:00,
2013-04-18 17:37:00,33.7,24.6,30.11,SSE,155,9.0,22.0,69,0.00,,---,0.00,VWS V14.01,2013-04-18 22:37:00,
2013-04-18 17:42:00,33.9,25.2,30.11,South,170,12.0,22.0,70,0.00,,---,0.00,VWS V14.01,2013-04-18 22:42:00,
2013-04-18 17:47:00,33.9,25.5,30.11,SSE,153,13.0,22.0,71,0.00,,---,0.00,VWS V14.01,2013-04-18 22:47:00,
2013-04-18 17:52:00,33.7,26.0,30.11,SSW,204,6.0,22.0,73,0.00,,---,0.00,VWS V14.01,2013-04-18 22:52:00,
2013-04-18 17:57:00,33.7,25.3,30.11,SW,215,12.0,22.0,71,0.00,,---,0.00,VWS V14.01,2013-04-18 22:57:00,
2013-04-18 18:02:00,33.9,25.8,30.12,SE,146,6.0,22.0,72,0.00,,---,0.00,VWS V14.01,2013-04-18 23:02:00,
2013-04-18 18:07:00,33.7,24.3,30.12,South,184,7.0,23.0,68,0.00,,---,0.00,VWS V14.01,2013-04-18 23:07:00,
2013-04-18 18:12:00,33.6,24.5,30.11,South,179,10.0,23.0,69,0.00,,---,0.00,VWS V14.01,2013-04-18 23:12:00,
2013-04-18 18:17:00,33.6,24.2,30.12,South,182,8.0,23.0,68,0.00,,---,0.00,VWS V14.01,2013-04-18 23:17:00,
2013-04-18 18:22:00,33.5,24.1,30.12,South,191,14.0,23.0,68,0.00,,---,0.00,VWS V14.01,2013-04-18 23:22:00,
2013-04-18 18:27:00,33.5,24.8,30.12,SSE,154,17.0,23.0,70,0.00,,---,0.00,VWS V14.01,2013-04-18 23:27:00,
2013-04-18 18:32:00,33.5,24.4,30.12,South,176,12.0,23.0,69,0.00,,---,0.00,VWS V14.01,2013-04-18 23:32:00,
2013-04-18 18:37:00,33.1,24.4,30.13,South,184,16.0,23.0,70,0.00,,---,0.00,VWS V14.01,2013-04-18 23:37:00,
2013-04-18 18:42:00,33.0,24.6,30.13,South,190,17.0,23.0,71,0.00,,---,0.00,VWS V14.01,2013-04-18 23:42:00,
2013-04-18 18:47:00,32.8,24.8,30.13,South,184,12.0,23.0,72,0.00,,---,0.00,VWS V14.01,2013-04-18 23:47:00,
2013-04-18 18:52:00,32.7,25.0,30.13,SSW,196,7.0,23.0,73,0.00,,---,0.00,VWS V14.01,2013-04-18 23:52:00,
2013-04-18 18:57:00,32.8,25.1,30.13,South,184,12.0,23.0,73,0.00,,---,0.00,VWS V14.01,2013-04-18 23:57:00,
2013-04-18 19:02:00,32.8,24.8,30.13,South,190,8.0,23.0,72,0.00,,---,0.00,VWS V14.01,2013-04-19 00:02:00,
2013-04-18 19:07:00,32.7,24.7,30.13,SSW,193,6.0,16.0,72,0.00,,---,0.00,VWS V14.01,2013-04-19 00:07:00,
2013-04-18 19:12:00,32.6,24.6,30.13,South,172,7.0,18.0,72,0.00,,---,0.00,VWS V14.01,2013-04-19 00:12:00,
2013-04-18 19:17:00,32.5,25.1,30.14,South,191,9.0,18.0,74,0.00,,---,0.00,VWS V14.01,2013-04-19 00:17:00,
2013-04-18 19:22:00,32.3,25.0,30.14,SSW,193,10.0,25.0,74,0.00,,---,0.00,VWS V14.01,2013-04-19 00:22:00,
2013-04-18 19:27:00,32.0,25.3,30.13,SSW,210,7.0,25.0,76,0.00,,---,0.00,VWS V14.01,2013-04-19 00:27:00,
2013-04-18 19:32:00,31.9,25.2,30.13,SE,131,9.0,25.0,76,0.00,,---,0.00,VWS V14.01,2013-04-19 00:32:00,
2013-04-18 19:37:00,31.9,24.9,30.13,South,173,14.0,14.0,75,0.00,,---,0.00,VWS V14.01,2013-04-19 00:37:00,
2013-04-18 19:42:00,31.9,24.9,30.13,South,173,7.0,16.0,75,0.00,,---,0.00,VWS V14.01,2013-04-19 00:42:00,
2013-04-18 19:47:00,31.9,24.9,30.13,South,177,4.0,16.0,75,0.00,,---,0.00,VWS V14.01,2013-04-19 00:47:00,
2013-04-18 19:52:00,31.9,25.2,30.13,ESE,123,4.0,16.0,76,0.00,,---,0.00,VWS V14.01,2013-04-19 00:52:00,
2013-04-18 19:57:00,31.9,24.6,30.14,SSW,193,6.0,16.0,74,0.00,,---,0.00,VWS V14.01,2013-04-19 00:57:00,
2013-04-18 20:02:00,32.1,24.8,30.14,SSE,163,3.0,16.0,74,0.00,,---,0.00,VWS V14.01,2013-04-19 01:02:00,
2013-04-18 20:07:00,32.0,24.7,30.14,SSW,195,9.0,18.0,74,0.00,,---,0.00,VWS V14.01,2013-04-19 01:07:00,
2013-04-18 20:12:00,31.6,25.5,30.14,South,176,7.0,24.0,78,0.00,,---,0.00,VWS V14.01,2013-04-19 01:12:00,
2013-04-18 20:17:00,31.2,26.1,30.14,South,191,4.0,24.0,81,0.00,,---,0.00,VWS V14.01,2013-04-19 01:17:00,
2013-04-18 20:22:00,31.0,25.9,30.14,South,172,5.0,24.0,81,0.00,,---,0.00,VWS V14.01,2013-04-19 01:22:00,
2013-04-18 20:27:00,30.9,25.8,30.14,SSE,149,6.0,24.0,81,0.00,,---,0.00,VWS V14.01,2013-04-19 01:27:00,
2013-04-18 20:32:00,30.8,25.7,30.14,South,186,9.0,24.0,81,0.00,,---,0.00,VWS V14.01,2013-04-19 01:32:00,
2013-04-18 20:37:00,30.7,25.6,30.14,South,176,6.0,14.0,81,0.00,,---,0.00,VWS V14.01,2013-04-19 01:37:00,
2013-04-18 20:42:00,30.7,25.6,30.14,SSE,166,4.0,16.0,81,0.00,,---,0.00,VWS V14.01,2013-04-19 01:42:00,
2013-04-18 20:47:00,30.7,25.9,30.14,SE,146,3.0,16.0,82,0.00,,---,0.00,VWS V14.01,2013-04-19 01:47:00,
2013-04-18 20:52:00,30.6,26.1,30.14,South,178,3.0,16.0,83,0.00,,---,0.00,VWS V14.01,2013-04-19 01:52:00,
2013-04-18 20:57:00,30.5,26.0,30.14,SSE,156,9.0,16.0,83,0.00,,---,0.00,VWS V14.01,2013-04-19 01:57:00,
2013-04-18 21:02:00,30.5,26.2,30.15,South,172,2.0,16.0,84,0.00,,---,0.00,VWS V14.01,2013-04-19 02:02:00,
2013-04-18 21:07:00,30.6,26.1,30.15,South,180,4.0,12.0,83,0.00,,---,0.00,VWS V14.01,2013-04-19 02:07:00,
2013-04-18 21:12:00,30.6,26.1,30.15,SSE,165,3.0,12.0,83,0.00,,---,0.00,VWS V14.01,2013-04-19 02:12:00,
2013-04-18 21:17:00,30.7,26.2,30.15,South,179,10.0,12.0,83,0.00,,---,0.00,VWS V14.01,2013-04-19 02:17:00,
2013-04-18 21:22:00,30.7,25.9,30.15,SE,126,5.0,13.0,82,0.00,,---,0.00,VWS V14.01,2013-04-19 02:22:00,
2013-04-18 21:27:00,30.7,25.6,30.16,SSE,166,3.0,13.0,81,0.00,,---,0.00,VWS V14.01,2013-04-19 02:27:00,
2013-04-18 21:32:00,30.7,25.6,30.16,South,186,6.0,13.0,81,0.00,,---,0.00,VWS V14.01,2013-04-19 02:32:00,
2013-04-18 21:37:00,30.7,25.3,30.16,South,173,4.0,12.0,80,0.00,,---,0.00,VWS V14.01,2013-04-19 02:37:00,
2013-04-18 21:42:00,30.7,25.3,30.16,SSE,165,5.0,12.0,80,0.00,,---,0.00,VWS V14.01,2013-04-19 02:42:00,
2013-04-18 21:47:00,30.8,25.1,30.16,SSE,149,4.0,13.0,79,0.00,,---,0.00,VWS V14.01,2013-04-19 02:47:00,
2013-04-18 21:52:00,30.8,25.1,30.16,South,173,3.0,13.0,79,0.00,,---,0.00,VWS V14.01,2013-04-19 02:52:00,
2013-04-18 21:57:00,30.9,24.9,30.16,SSE,153,7.0,13.0,78,0.00,,---,0.00,VWS V14.01,2013-04-19 02:57:00,
2013-04-18 22:02:00,31.1,24.8,30.16,SW,225,6.0,15.0,77,0.00,,---,0.00,VWS V14.01,2013-04-19 03:02:00,
2013-04-18 22:07:00,31.0,24.6,30.16,SSW,197,12.0,15.0,77,0.00,,---,0.00,VWS V14.01,2013-04-19 03:07:00,
2013-04-18 22:12:00,31.0,24.6,30.16,South,171,7.0,15.0,77,0.00,,---,0.00,VWS V14.01,2013-04-19 03:12:00,
2013-04-18 22:17:00,31.0,24.6,30.16,South,172,5.0,15.0,77,0.00,,---,0.00,VWS V14.01,2013-04-19 03:17:00,
2013-04-18 22:22:00,31.1,24.4,30.16,South,173,5.0,15.0,76,0.00,,---,0.00,VWS V14.01,2013-04-19 03:22:00,
2013-04-18 22:27:00,31.1,24.4,30.16,SSE,166,3.0,15.0,76,0.00,,---,0.00,VWS V14.01,2013-04-19 03:27:00,
2013-04-18 22:32:00,31.0,24.6,30.16,SE,144,2.0,15.0,77,0.00,,---,0.00,VWS V14.01,2013-04-19 03:32:00,
2013-04-18 22:37:00,31.0,24.6,30.16,South,172,3.0,15.0,77,0.00,,---,0.00,VWS V14.01,2013-04-19 03:37:00,
2013-04-18 22:42:00,30.9,24.5,30.16,SSE,155,7.0,15.0,77,0.00,,---,0.00,VWS V14.01,2013-04-19 03:42:00,
2013-04-18 22:47:00,30.9,24.5,30.16,SSW,196,6.0,15.0,77,0.00,,---,0.00,VWS V14.01,2013-04-19 03:47:00,
2013-04-18 22:52:00,30.8,24.5,30.16,SE,145,6.0,15.0,77,0.00,,---,0.00,VWS V14.01,2013-04-19 03:52:00,
2013-04-18 22:57:00,30.9,24.5,30.16,SSE,163,2.0,15.0,77,0.00,,---,0.00,VWS V14.01,2013-04-19 03:57:00,
2013-04-18 23:01:00,30.8,24.5,30.15,SSE,159,1.0,15.0,77,0.00,,---,0.00,VWS V14.01,2013-04-19 04:01:00,
2013-04-18 23:06:00,30.7,24.4,30.15,SSE,151,1.0,10.0,77,0.00,,---,0.00,VWS V14.01,2013-04-19 04:06:00,
2013-04-18 23:11:00,30.7,24.4,30.15,SSE,156,3.0,11.0,77,0.00,,---,0.00,VWS V14.01,2013-04-19 04:11:00,
2013-04-18 23:16:00,30.6,24.3,30.15,SE,144,2.0,11.0,77,0.00,,---,0.00,VWS V14.01,2013-04-19 04:16:00,
2013-04-18 23:21:00,30.4,24.4,30.15,SE,135,3.0,11.0,78,0.00,,---,0.00,VWS V14.01,2013-04-19 04:21:00,
2013-04-18 23:26:00,30.4,24.4,30.15,SSE,156,4.0,11.0,78,0.00,,---,0.00,VWS V14.01,2013-04-19 04:26:00,
2013-04-18 23:31:00,30.4,24.4,30.15,SSE,149,7.0,11.0,78,0.00,,---,0.00,VWS V14.01,2013-04-19 04:31:00,
2013-04-18 23:36:00,30.3,24.3,30.14,SE,135,3.0,11.0,78,0.00,,---,0.00,VWS V14.01,2013-04-19 04:36:00,
2013-04-18 23:41:00,30.3,24.3,30.14,South,183,2.0,11.0,78,0.00,,---,0.00,VWS V14.01,2013-04-19 04:41:00,
2013-04-18 23:46:00,30.3,24.3,30.14,South,180,2.0,11.0,78,0.00,,---,0.00,VWS V14.01,2013-04-19 04:46:00,
2013-04-18 23:51:00,30.2,24.2,30.14,SSE,152,3.0,11.0,78,0.00,,---,0.00,VWS V14.01,2013-04-19 04:51:00,
2013-04-18 23:56:00,30.1,24.1,30.14,South,180,2.0,11.0,78,0.00,,---,0.00,VWS V14.01,2013-04-19 04:56:00,